www.pogodaiklimat.ru

Погода и климат >> Архив погоды >> Украина >> Олевск


ПОГОДА в Олевске

  • Прогноз погоды в Олевске
  • Монитор погоды в Олевске

АРХИВ ПОГОДЫ в Олевске

Время (UTC), дата Ветер
(напр.,м/с)
 
Видим.   Явления Облачность Т
(С)
Тd
(С)
f
(%)
Тe
(С)
Тes
(С)
Комфортность P
(гПа)
Po
(гПа)
Тmin
(С)
Tmax
(С)
R
(мм)
R24
(мм)
S
(см)
00 9.06 штиль 0 6000 м дымка 4/0
[Ac trans]
+16.6 +15.5 93 +16 +16 1022.0 1000.4
03 9.06 СЗ 1 2000 м дымка 4/0
[Ac trans]
+15.9 +15.3 96 +17 +17 1022.0 1000.3
06 9.06 С 1 10 км 6/0
[Ac trans Ci]
+23.7 +19.4 77 +29 +32 душно 1022.0 1000.9 +15.4
09 9.06 СВ 2 20 км 6/4 600 м
[Cu med, cong Ci fib]
+27.7 +16.3 50 +31 +38 душно 1022.0 1001.2
12 9.06 СВ 2 20 км {гроза} 9/8 600 м
[Cb cap Ci fib]
+29.1 +17.9 51 +34 +34 очень
душно
1021.0 1000.3
15 9.06 З 3 20 км гроза без осадков {ливн. осадки} 9/8 630 м
[Cb cap Ac trans]
+21.8 +17.8 78 +26 +26 душно 1022.0 1000.8
18 9.06 СЗ 1 10 км {гроза, ливн. осадки} 10/4 600 м
[Cb calv Cs]
+21.0 +17.8 82 +26 +26 душно 1022.0 1000.7 +29.1 0.7
21 9.06 штиль 0 10 км 8/0
[Ci fib]
+17.6 +15.8 89 +18 +18 1023.0 1001.4
00 10.06 штиль 0 10 км ясно +16.4 +14.6 89 +16 +16 1023.0 1001.3
03 10.06 штиль 0 10 км ясно +15.0 +13.2 89 +15 +15 1023.0 1001.2
06 10.06 штиль 0 10 км ясно +23.0 +18.1 74 +29 +39 очень
душно
1022.0 1000.9 +14.3
09 10.06 В 3 20 км 3/3 1000 м
[Cu hum]
+26.9 +18.2 59 +32 +41 очень
душно
1021.0 1000.2
12 10.06 В 3 20 км 5/5 1000 м
[Cu med, cong]
+29.3 +18.1 51 +34 +39 очень
душно
1020.0 999.4
15 10.06 В 3 20 км 4/4 1000 м
[Cu hum]
+29.1 +17.6 50 +33 +36 очень
душно
1018.0 997.4
18 10.06 ЮВ 1 20 км 4/0
[Ac trans]
+27.1 +17.6 56 +31 +31 душно 1018.0 997.2 +29.7
21 10.06 штиль 0 14 км ясно +19.8 +17.2 85 +22 +22 комфорт 1019.0 997.7
00 11.06 штиль 0 10 км ясно +18.2 +16.4 89 +19 +19 1019.0 997.6
03 11.06 С 1 10 км ясно +17.4 +15.7 90 +18 +19 1019.0 997.5
06 11.06 СВ 1 20 км ясно +24.4 +17.9 67 +29 +37 душно 1019.0 998.0 +16.7
09 11.06 Ю 2 20 км 1/1 1000 м
[Cu med, cong]
+29.0 +17.2 49 +33 +49 очень
душно
1019.0 998.3
12 11.06 ЮЗ 3 20 км 3/3 1000 м
[Cu med, cong]
+30.5 +16.5 43 +34 +43 очень
душно
1018.0 997.5
15 11.06 ЮВ 3 20 км 8/4 600 м
[Cb calv Ac trans Ci fib]
+30.7 +16.7 43 +34 +34 очень
душно
1017.0 996.5
18 11.06 Ю 1 20 км 4/0
[Ac trans Ci fib]
+23.4 +18.5 74 +30 +30 очень
душно
1018.0 997.0 +31.0
21 11.06 штиль 0 10 км ясно +19.2 +16.6 85 +21 +21 комфорт 1018.0 996.7
00 12.06 штиль 0 12 км ясно +17.3 +15.1 87 +17 +17 1018.0 996.5
03 12.06 штиль 0 10 км ясно +17.4 +15.0 86 +17 +18 1018.0 996.5
06 12.06 штиль 0 20 км ясно +26.0 +19.4 67 +31 +41 очень
душно
1018.0 997.2 +15.4
09 12.06 В 2 10 км 3 балла +29.6 +18.4 51 +34 +46 очень
душно
1017.0 996.4
12 12.06 В 2 20 км 5/5 600 м
[Cu med, cong]
+30.9 +16.1 41 +34 +40 душно 1016.0 995.5
15 12.06 В 2 20 км 4/3 600 м
[Cu med, cong Ci fib]
+30.7 +16.7 43 +34 +38 очень
душно
1015.0 994.5
18 12.06 ЮЗ 1 20 км 1/0
[Ac trans]
+26.7 +18.5 61 +32 +32 очень
душно
1015.0 994.3 +31.6
21 12.06 штиль 0 13 км ясно +20.7 +18.1 85 +24 +24 комфорт 1016.0 994.8
00 13.06 штиль 0 11 км 3/0
[Ac trans]
+17.8 +15.8 88 +18 +18 1016.0 994.6
03 13.06 штиль 0 10 км ясно +18.0 +16.2 89 +18 +19 1017.0 995.6
06 13.06 В 2 20 км ясно +25.9 +17.8 61 +30 +38 душно 1017.0 996.2 +16.6
09 13.06 ЮВ 3 20 км 6/5 600 м
[Cu med, cong Ci fib]
+29.9 +18.3 50 +35 +40 очень
душно
1017.0 996.5
12 13.06 ЮВ 3 20 км 5/5 600 м
[Cu med, cong]
+31.5 +17.7 44 +36 +41 очень
душно
1017.0 996.6
15 13.06 ЮВ 2 20 км 4/4 1000 м
[Cu med, cong]
+30.9 +15.7 40 +34 +37 душно 1016.0 995.5
18 13.06 штиль 0 20 км 8/0
[Cs]
+29.1 +17.3 49 +33 +33 очень
душно
1016.0 995.4 +31.6
21 13.06 штиль 0 18 км 8/0
[Cs]
+23.0 +16.3 66 +28 +28 душно 1018.0 996.9
00 14.06 штиль 0 16 км ясно +18.7 +15.9 84 +20 +20 1019.0 997.6
03 14.06 штиль 0 10 км 8/0
[Cc]
+17.1 +15.3 89 +17 +17 1019.0 997.5
06 14.06 штиль 0 20 км 8/0
[Cc]
+24.0 +15.7 60 +27 +27 жарко 1019.0 998.0 +16.4
09 14.06 ЮЗ 1 20 км 6/0
[Cc]
+28.1 +16.7 50 +32 +39 душно 1019.0 998.3
12 14.06 Ю 3 20 км 4/3 1000 м
[Cu med, cong Ac trans]
+29.9 +15.6 42 +33 +41 душно 1018.0 997.4
15 14.06 ЮЗ 2 20 км 4/4 1000 м
[Cu hum]
+31.7 +17.2 42 +35 +39 очень
душно
1017.0 996.6
18 14.06 З 2 20 км зарница 8/8 600 м
[Cb cap Ci fib]
+25.5 +16.6 58 +29 +29 душно 1018.0 997.1 +31.8
21 14.06 штиль 0 10 км 6 баллов +20.0 +17.4 85 +23 +23 комфорт 1018.0 996.7
00 15.06 штиль 0 15 км 10/0
[Cs]
+17.8 +15.4 86 +18 +18 1018.0 996.6
03 15.06 З 1 10 км 6 баллов +16.6 +15.0 90 +17 +18 1018.0 996.5
06 15.06 СВ 2 10 км ясно +25.0 +17.7 64 +29 +37 душно 1018.0 997.1 +15.6
09 15.06 ЮВ 1 10 км ясно +28.6 +18.4 54 +33 +53 опасность
солнечного
удара
1017.0 996.4
12 15.06 СЗ 2 10 км 3 балла +29.9 +17.3 47 +34 +44 очень
душно
1015.0 994.5
15 15.06 З 1 10 км 3 балла +30.7 +17.4 45 +35 +39 очень
душно
1014.0 993.6
18 15.06 штиль 0 10 км 10 баллов +26.1 +20.2 70 +32 +32 очень
душно
1014.0 993.3 +31.7
21 15.06 штиль 0 10 км 3 балла +21.2 +18.8 86 +26 +26 душно 1015.0 993.9

 

Местоположение метеостанции Олевск (Житомирская область, Украина): широта 51.22 долгота 27.68 высота над уровнем моря 182 м.

В архиве по умолчанию представлена погода в Олевске за последнюю неделю. Архивные данные за месяц целиком и за предыдущие месяцы, начиная с января 2011 года, Вы можете получить, выбрав интересующий диапазон дат из раскрывающегося списка и нажав кнопку "Ввод!".


*Определитесь, кто Вы:
робот инопланетянин человек

Внимание! Время в таблицах - всемирное. Для получения местного времени необходимо прибавить поправку, которая равна 2 ч.

Смотрите также архив погоды в соседних городах и на ближайших метеорологических станциях:

Погода в Новограде-Волынском (Житомирская область, Украина) (69 км)
Погода в Сарнах (Ровенская область, Украина) (74 км)
Погода в Коростени (Житомирская область, Украина) (74 км)
Погода в Овруче (Житомирская область, Украина) (77 км)
Погода в Житковичах (Гомельская область, Беларусь) (112 км)
Погода в Шепетовке (Хмельницкая область, Украина) (125 км)
Погода в Ровно (Ровенская область, Украина) (130 км)
Погода в Житомире (Житомирская область, Украина) (133 км)
Погода в Полесской (Брестская область, Беларусь) (138 км)
Погода в Мозыре (Гомельская область, Беларусь) (139 км)

Пояснения к столбцам:

Ветер - указаны скорость ветра в м/с - средняя за 10 мин, порывы в срок и между сроками (в фигурных скобках) и направление, откуда дует ветер: С - северный, СВ - северо-восточный, В - восточный, ЮВ - юго-восточный, Ю - южный, ЮЗ - юго-западный, З - западный, СЗ - северо-западный.
Видимость - горизонтальная дальность видимости в метрах или километрах. При видимости от 1 до 10 км при отсутствии осадков обычно наблюдается дымка, при ухудшении видимости до 1 км и менее - туман. В сухую погоду видимость может ухудшаться дымом, пылью или мглою.
Явления - указаны атмосферные явления, наблюдавшиеся в срок или в последний час перед сроком; фигурными скобками обозначены явления, наблюдавшиеся между сроками (за 1-3 часа до срока); квадратными скобками обозначены град или гололедные отложения с указанием их диаметра в мм.
Облачность - указаны через наклонную черту общая и нижняя облачность в баллах и высота нижней границы облаков в метрах; квадратными скобками обозначены формы облаков: Ci - перистые, Cs - перисто-слоистые, Cc - перисто-кучевые, Ac - высококучевые, As - высокослоистые, Sc - слоисто-кучевые, Ns - слоисто-дождевые, Cu - кучевые, Cb - кучево-дождевые. Подробнее классификацию облаков см. в Атласе облаков (PDF).
T - Температура воздуха - температура, измеренная на высоте 2 м над землей.
Td - Температура точки росы - температура, при понижении до которой содержащийся в воздухе водяной пар достигнет насыщения.
f - Относительная влажность воздуха - влажноcть воздуха, измеренная на высоте 2 м над землей.
Te - Эффективная температура - температура, которую ощущает одетый по сезону человек в тени. Характеристика душности погоды. При расчете учитывается влияние влажности воздуха и скорости ветра на теплоощущения человека.
Tes - Эффективная температура на солнце - температура, которую ощущает человек, с поправкой на солнечный нагрев. Характеристика знойности погоды. Зависит от высоты солнца над горизонтом, облачности и скорости ветра. Ночью, в пасмурную погоду, а также при ветре 12 м/с и более поправка равна нулю.
P - Атмосферное давление - приведенное к уровню моря атмосферное давление.
Po - Атмосферное давление - измеренное на уровне метеостанции атмосферное давление.
Tmin - Минимальная температура - минимум температуры воздуха на высоте 2 м над землей.
Tmax - Максимальная температура - максимум температуры воздуха на высоте 2 м над землей.
R - Количество осадков - Количество выпавших осадков за период времени, мм. При наведении курсора мыши на число - период времени, за который выпало указанное количество осадков.
R24 - Количество осадков - Количество выпавших осадков за 24 часа, мм.
S - Снежный покров - Высота снежного покрова, см. При наведении курсора мыши на число - состояние снежного покрова и степень покрытия местности в баллах.